Flag for U.S.A. Weather past 2 weeks in Moscow, Idaho, U.S.A.

Now
36 °F

Light rain. Mostly cloudy.


Feels Like: 30 °F
Forecast: 31 / 48 °F
Wind: 8 mph from Southeast

Location: Pullman / Moscow Regional Airport

Current Time: Apr 1, 2015 at 9:29:45 PM

Latest Report: Apr 1, 2015 at 8:53 PM


Visibility: 9 mi

Pressure: 30.19 "Hg

Humidity: 85%

Dew point: 32 °F

Location of MoscowLocation

Historic Weather in Moscow — Graph

°F

Moscow temperature yesterday

Maximum temperature yesterday: 50 °F (at 3:53 AM)
Minimum temperature yesterday: 38 °F (at 11:53 PM)
Average temperature yesterday: 47 °F

Past Weeks' High & Low Weather Summary

 TemperatureHumidityPressure
High72 °F (Mar 27, 3:53 PM)96% (Mar 17, 8:53 PM)30.39 "Hg (Mar 17, 8:53 PM)
Low34 °F (Mar 25, 4:53 AM)36% (Mar 30, 3:53 PM)29.82 "Hg (Mar 31, 3:53 AM)
Average47 °F73%30.13 "Hg
* Reported Mar 17 7:53 PM — Apr 1 7:53 PM, Moscow, Weather by CustomWeather, © 2015

Note: Actual official high and low records may vary slightly from our data, if they occured in-between our weather recording intervals... More about our weather records

Advertising

Moscow weather history for previous 24 hours

 ConditionsComfort  
Time TempWeatherWind HumidityBarometerVisibility
7:53 PM
Wed, Apr 1
41 °FLight rain. Overcast.16 mph62%30.18 "Hg10 mi
6:53 PM42 °FSunny.6 mph57%30.15 "Hg10 mi
5:53 PM45 °FSunny.17 mph49%30.14 "Hg10 mi
4:53 PM45 °FPassing clouds.15 mph53%30.16 "Hg10 mi
3:53 PM47 °FScattered clouds.18 mph44%30.15 "Hg10 mi
2:53 PM45 °FScattered clouds.13 mph49%30.16 "Hg10 mi
1:53 PM45 °FPartly sunny.17 mph51%30.18 "Hg10 mi
12:53 PM46 °FScattered clouds.20 mph54%30.19 "Hg10 mi
11:53 AM42 °FOvercast.18 mph62%30.20 "Hg10 mi
10:53 AM40 °FPartly sunny.20 mph68%30.22 "Hg10 mi
9:53 AM39 °FOvercast.16 mph76%30.21 "Hg10 mi
8:53 AM38 °FOvercast.15 mph76%30.20 "Hg10 mi
7:53 AM36 °FMostly cloudy.12 mph82%30.20 "Hg10 mi
6:53 AM36 °FOvercast.17 mph79%30.18 "Hg10 mi
5:53 AM36 °FOvercast.15 mph82%30.17 "Hg10 mi
4:53 AM36 °FOvercast.14 mph82%30.16 "Hg10 mi
3:53 AM36 °FPassing clouds.9 mph82%30.15 "Hg10 mi
2:53 AM37 °FOvercast.14 mph82%30.13 "Hg10 mi
1:53 AM36 °FClear.18 mph82%30.13 "Hg10 mi
12:53 AM37 °FClear.10 mph79%30.11 "Hg10 mi
11:53 PM
Tue, Mar 31
38 °FClear.17 mph73%30.07 "Hg10 mi
10:53 PM39 °FClear.14 mph70%30.05 "Hg10 mi
9:53 PM41 °FClear.12 mph65%30.03 "Hg10 mi
Weather by CustomWeather, © 2015

See weather overviewHow to use our weather pages